Location: Maccacari
(45.1333°N, 11.1333°E)
Time: 18:31:21
(UTC+00:00)

USA 234 - Pass Details

Date: 26 January 2021
Orbit: 1100 x 1107 km, 123.0° (Epoch: 01 March)

Event Time Altitude Azimuth Distance (km) Brightness Sun altitude
Exits shadow 21:22:22 12° 305° (NW) 2,790 5.8 -52.7°
Drops below altitude 10° 21:22:49 10° 306° (NW) 2,964 5.9 -52.8°
Sets 21:25:20 0° 309° (NW) 3,926 6.7 -53.1°
